Regional Weather Roundup
Issued by NWS

Home | Current Version | Previous Version | Text Only | Print | Product List | Glossary Off
Versions: 1 2 3 4 5 6 7 8 9 10 11 12 13 14 15 16 17 18 19 20 21 22 23 24 25 26 27 28 29 30 31 32 33 34 35 36 37 38 39 40 41 42 43 44 45 46 47 48 49 50

877
ASUS45 KSLC 281110
RWRUT

UTAH REGIONAL WEATHER ROUNDUP
NATIONAL WEATHER SERVICE SALT LAKE CITY UT
500 AM MDT SUN MAY 28 2017

UTZ001>011-023>025-281200-

NORTHERN UTAH

CITY           SKY/WX    TMP DP  RH WIND       PRES   REMARKS
BRIGHAM CITY   CLEAR     48  38  68 CALM      30.23S
HILL AFB       CLEAR     50  34  52 E17G24    30.23S
LOGAN          CLEAR     44  37  76 NE3       30.27S
OGDEN          CLEAR     47  35  63 S5        30.22S
SALT LAKE CITY CLEAR     53  41  63 S5        30.21S
TOOELE VALLEY  CLEAR     43  36  75 S10       30.22S
WENDOVER       CLEAR     54  35  48 CALM      30.22S
WEST JORDAN    CLEAR     49  41  72 CALM      30.24S

$$

UTZ011>015-024>027-281200-

CENTRAL/NORTHEAST UTAH

CITY           SKY/WX    TMP DP  RH WIND       PRES   REMARKS
PROVO AIRPORT  CLEAR     47  38  71 S7        30.25R
MOAB/CANYONLAN CLEAR     56  25  30 VRB3      30.19S
DELTA          CLEAR     39  30  70 SE6       30.23S WCI  35
PRICE          CLEAR     46  25  43 S6        30.26R
ROOSEVELT      CLEAR     37  32  81 W6        30.30S WCI  33
VERNAL         CLEAR     45  31  58 NW5       30.28R

$$

UTZ013>016-019>022-027-281200-

SOUTHERN UTAH

CITY           SKY/WX    TMP DP  RH WIND       PRES   REMARKS
BRYCE CANYON   CLEAR     31  23  72 W9        30.33S WCI  23
CEDAR CITY     CLEAR     39  24  55 CALM      30.23S
MILFORD        CLEAR     42  24  49 CALM      30.22S
ST GEORGE      SUNNY     66  28  24 N8        30.08R
HANKSVILLE     CLEAR     54  25  32 N6        30.22S
BLANDING       CLEAR     54  23  30 NE16G26   30.29S

$$

REGIONAL REPORTS     COLORADO/ARIZONA

CITY           SKY/WX    TMP DP  RH WIND       PRES   REMARKS
CRAIG, CO      CLEAR     32  28  85 CALM      30.34S
GRAND JUNCTION CLEAR     48  32  53 CALM      30.25R
RIFLE, CO      CLEAR     37  29  72 E5        30.32R WCI  33
MONTROSE, CO   CLEAR     41  30  65 SE7       30.31S
CORTEZ, CO     CLEAR     36  28  73 NE6       30.24S WCI  31
COLORADO CITY    N/A     46  30  53 CALM      30.19S
PAGE, AZ       CLEAR     61  25  25 SW5       30.13R
GRAND CANYON   CLEAR     37  26  64 E3        30.24S
KINGMAN, AZ    CLEAR     56  22  26 MISG      30.04S
FLAGSTAFF, AZ  CLEAR     36  24  62 CALM      30.24R

$$

REGIONAL REPORTS    NEVADA/IDAHO/WYOMING

CITY           SKY/WX    TMP DP  RH WIND       PRES   REMARKS
LAS VEGAS, NV  CLEAR     77  23  13 SE5       29.98S
ELY, NY        CLEAR     34  22  61 S9        30.30S WCI  27
ELKO, NV       CLEAR     41  34  76 CALM      30.24S
POCATELLO, ID  CLEAR     40  39  97 CALM      30.27S
BURLEY, ID     CLEAR     43  39  86 CALM      30.23S
FORT BRIDGER,    N/A     39  30  70 W8        30.36F WCI  34
EVANSTON, WY   CLEAR     41  29  62 CALM      30.34S
ROCK SPRINGS,  CLEAR     38  29  70 S6        30.33S WCI  33
KEMMERER, WY     N/A     34  30  86 N10       30.36S WCI  26

$$




USA.gov is the U.S. government's official web portal to all federal, state and local government web resources and services.